This demonstration page uses our WeatherBlox Daily Observations layout. Learn more.

41.55636, -103.73856

Hourly Observations for August 12, 2019

Temp ( °F °C ) Dew Point ( °F °C ) Humidity (%) Winds ( mph kmh ) Pressure ( in mb ) Visibility ( mi km ) Precip ( " mm )
12:58 am 00:58 Mostly Cloudy 69 20.4 61 16 76 76 SSE 3 6 29.87 1011 10 16.0934 0 0
1:58 am 01:58 Mostly Clear 66 18.7 59 15.1 80 80 SE 10 17 29.88 1012 10 16.0934 0 0
2:58 am 02:58 Mostly Cloudy 65 18.4 59 15.1 81 81 W 3 6 29.88 1012 10 16.0934 0 0
3:58 am 03:58 Mostly Cloudy 65 18.2 59 15.2 83 83 SSW 9 15 29.91 1013 10 16.0934 0 0
4:58 am 04:58 Mostly Clear 63 17.4 60 15.4 88 88 SSW 9 15 29.9 1013 10 16.0934 0 0
5:58 am 05:58 Clear 64 17.6 58 14.7 83 83 SSW 12 19 29.86 1011 10 16.0934 0 0
6:58 am 06:58 Clear 62 16.8 58 14.2 85 85 SW 8 13 29.87 1011 10 16.0934 0 0
7:58 am 07:58 Clear 63 17.2 57 13.8 81 81 WSW 10 17 29.85 1011 10 16.0934 0 0
8:58 am 08:58 Clear 60 15.6 57 14 90 90 SSW 12 19 29.84 1011 10 16.0934 0 0
9:58 am 09:58 Clear 59 14.9 55 12.5 86 86 W 7 11 29.86 1011 10 16.0934 0 0
10:58 am 10:58 Clear 59 14.8 49 9.4 70 70 W 14 22 29.93 1013 10 16.0934 0 0
11:58 am 11:58 Clear 60 15.3 54 12.3 82 82 WNW 23 37 29.96 1015 10 16.0934 0 0
12:58 pm 12:58 Sunny 61 15.9 56 13.4 85 85 WNW 17 28 29.99 1016 10 16.0934 0 0
1:58 pm 13:58 Mostly Sunny 63 17.1 57 14.1 83 83 NW 14 22 30.01 1016 10 16.0934 0 0
2:58 pm 14:58 Mostly Sunny 66 18.8 57 13.8 73 73 NW 17 28 30.02 1017 10 16.0934 0 0
3:58 pm 15:58 Mostly Cloudy 68 19.9 58 14.2 70 70 NNW 14 22 30.02 1017 10 16.0934 0 0
4:58 pm 16:58 Sunny 71 21.7 58 14.6 64 64 NNW 10 17 30.01 1016 10 16.0934 0 0
5:58 pm 17:58 Sunny 75 23.7 56 13.2 52 52 NW 13 20 30 1016 10 16.0934 0 0
6:58 pm 18:58 Sunny 77 25 53 11.4 43 43 NW 13 20 29.98 1015 10 16.0934 0 0
9:58 pm 21:58 Sunny 82 27.5 49 9.2 32 32 E 9 15 29.94 1014 10 16.0934 0 0
10:58 pm 22:58 Sunny 82 27.8 47 8.5 30 30 ENE 10 17 29.93 1014 10 16.0934 0 0
11:58 pm 23:58 Sunny 82 27.5 46 7.6 28 28 ENE 8 13 29.93 1014 10 16.0934 0 0

Powered by AerisWeather